St. Paul Lake Elmo, MN

1:50 PM CDT on October 21, 2017 (GMT -0500)
St. Paul Lake Elmo

Weather History for K21D - September, 2013

Change the Weather History Date:

Monday, September 2, 2013

  Actual Average (KSTP) Record (KSTP)
Temperature  
Mean Temperature 57 °F -  
Max Temperature 66 °F 78 °F 90 °F (1999)
Min Temperature 48 °F 57 °F 48 °F (1998)
Degree Days  
Heating Degree Days 8    
Growing Degree Days 7 (Base 50)    
Moisture  
Dew Point 51 °F    
Average Humidity 78    
Maximum Humidity 100    
Minimum Humidity 56    
Precipitation  
Precipitation 0.00 in - - ()
Sea Level Pressure  
Sea Level Pressure 30.06 in    
Wind  
Wind Speed 5 mph (NNW)    
Max Wind Speed 12 mph    
Max Gust Speed 16 mph    
Visibility 10 miles    
Events      
Averages and records for this station are not official NWS values.
T = Trace of Precipitation, MM = Missing Value Source: NWS Daily Summary

Daily Weather History Graph

Daily Weather History Graph

Search for Another Location

Airport or City:

Trip Planner

Search our weather history database for the weather conditions in past years. The results will help you decide how hot, cold, wet, or windy it might be!

Date:

Astronomy

Sep. 02, 2013 Rise Set
Actual Time 6:34 AM CDT 7:46 PM CDT
Civil Twilight 6:04 AM CDT 8:16 PM CDT
Nautical Twilight 5:28 AM CDT 8:52 PM CDT
Astronomical Twilight 4:49 AM CDT 9:30 PM CDT
Moon 3:47 AM CDT (9/2) 6:03 PM CDT (9/2)
Length of Visible Light 14h 11m
Length of Day
13h 11m
Waning Crescent, 8% of the Moon is Illuminated
Sep 2
Waning Crescent
Sep 5
New
Sep 12
First Quarter
Sep 19
Full
Sep 26
Last Quarter

Hourly Weather History & Observations

Time (CDT) Temp. Dew Point Humidity Pressure Visibility Wind Dir Wind Speed Gust Speed Precip Events Conditions
12:12 AM 59.0 °F 53.6 °F 82% 29.99 in 10.0 mi North 3.5 mph - N/A   Overcast
12:32 AM 60.8 °F 53.6 °F 77% 29.99 in 10.0 mi NNW 3.5 mph - N/A   Overcast
12:52 AM 59.0 °F 53.6 °F 82% 29.99 in 10.0 mi NW 3.5 mph - N/A   Mostly Cloudy
1:11 AM 59.0 °F 53.6 °F 82% 29.99 in 10.0 mi NNW 3.5 mph - N/A   Mostly Cloudy
1:32 AM 55.4 °F 53.6 °F 94% 30.00 in 10.0 mi NW 4.6 mph - N/A   Scattered Clouds
1:52 AM 55.4 °F 53.6 °F 94% 30.00 in 10.0 mi NNW 3.5 mph - N/A   Clear
2:11 AM 55.4 °F 51.8 °F 88% 30.00 in 10.0 mi NNW 4.6 mph - N/A   Clear
2:32 AM 55.4 °F 51.8 °F 88% 30.00 in 10.0 mi NW 3.5 mph - N/A   Clear
2:52 AM 53.6 °F 51.8 °F 94% 30.01 in 10.0 mi NNW 3.5 mph - N/A   Clear
3:12 AM 53.6 °F 51.8 °F 94% 30.01 in 10.0 mi NNW 3.5 mph - N/A   Clear
3:32 AM 53.6 °F 51.8 °F 94% 30.01 in 10.0 mi NNW 4.6 mph - N/A   Mostly Cloudy
3:52 AM 55.4 °F 51.8 °F 88% 30.02 in 10.0 mi North 4.6 mph - N/A   Overcast
4:12 AM 53.6 °F 51.8 °F 94% 30.02 in 10.0 mi North 3.5 mph - N/A   Mostly Cloudy
4:32 AM 53.6 °F 51.8 °F 94% 30.02 in 10.0 mi North 3.5 mph - N/A   Scattered Clouds
4:52 AM 53.6 °F 51.8 °F 94% 30.03 in 10.0 mi North 3.5 mph - N/A   Mostly Cloudy
5:12 AM 53.6 °F 51.8 °F 94% 30.03 in 10.0 mi NW 4.6 mph - N/A   Overcast
5:32 AM 55.4 °F 51.8 °F 88% 30.03 in 10.0 mi NNW 3.5 mph - N/A   Overcast
5:52 AM 55.4 °F 51.8 °F 88% 30.04 in 10.0 mi NNW 6.9 mph - N/A   Overcast
6:12 AM 55.4 °F 50.0 °F 82% 30.04 in 10.0 mi North 8.1 mph - N/A   Overcast
6:32 AM 55.4 °F 51.8 °F 88% 30.05 in 10.0 mi NNW 6.9 mph - N/A   Overcast
6:52 AM 55.4 °F 50.0 °F 82% 30.06 in 10.0 mi North 8.1 mph - N/A   Overcast
7:12 AM 55.4 °F 50.0 °F 82% 30.07 in 10.0 mi NNW 11.5 mph 16.1 mph N/A   Overcast
7:32 AM 55.4 °F 50.0 °F 82% 30.07 in 10.0 mi NNW 5.8 mph - N/A   Overcast
7:52 AM 55.4 °F 50.0 °F 82% 30.07 in 10.0 mi North 8.1 mph - N/A   Overcast
8:12 AM 55.4 °F 50.0 °F 82% 30.07 in 10.0 mi NNW 9.2 mph - N/A   Overcast
8:32 AM 55.4 °F 50.0 °F 82% 30.08 in 10.0 mi NNW 6.9 mph - N/A   Overcast
8:52 AM 55.4 °F 50.0 °F 82% 30.08 in 10.0 mi NNW 6.9 mph - N/A   Overcast
9:12 AM 57.2 °F 50.0 °F 77% 30.09 in 10.0 mi NNW 8.1 mph - N/A   Overcast
9:32 AM 57.2 °F 50.0 °F 77% 30.09 in 10.0 mi NNW 9.2 mph - N/A   Overcast
9:52 AM 57.2 °F 50.0 °F 77% 30.09 in 10.0 mi NW 9.2 mph - N/A   Overcast
10:12 AM 59.0 °F 50.0 °F 72% 30.10 in 10.0 mi NNW 9.2 mph - N/A   Overcast
10:32 AM 59.0 °F 50.0 °F 72% 30.10 in 10.0 mi North 6.9 mph - N/A   Overcast
10:52 AM 59.0 °F 50.0 °F 72% 30.10 in 10.0 mi North 8.1 mph - N/A   Overcast
11:12 AM 59.0 °F 48.2 °F 67% 30.11 in 10.0 mi North 10.4 mph - N/A   Overcast
11:32 AM 59.0 °F 50.0 °F 72% 30.11 in 10.0 mi North 6.9 mph - N/A   Overcast
11:52 AM 60.8 °F 50.0 °F 68% 30.10 in 10.0 mi NW 9.2 mph - N/A   Overcast
12:12 PM 59.0 °F 50.0 °F 72% 30.10 in 10.0 mi NW 6.9 mph - N/A   Overcast
12:32 PM 60.8 °F 50.0 °F 68% 30.11 in 10.0 mi North 5.8 mph - N/A   Overcast
12:52 PM 60.8 °F 50.0 °F 68% 30.10 in 10.0 mi North 6.9 mph - N/A   Overcast
1:12 PM 62.6 °F 50.0 °F 63% 30.10 in 10.0 mi North 8.1 mph - N/A   Overcast
1:32 PM 62.6 °F 50.0 °F 63% 30.10 in 10.0 mi North 6.9 mph - N/A   Overcast
1:52 PM 62.6 °F 50.0 °F 63% 30.09 in 10.0 mi NNE 3.5 mph - N/A   Overcast
2:12 PM 62.6 °F 50.0 °F 63% 30.09 in 10.0 mi North 3.5 mph - N/A   Mostly Cloudy
2:31 PM 62.6 °F 50.0 °F 63% 30.08 in 10.0 mi NNW 5.8 mph - N/A   Mostly Cloudy
2:52 PM 64.4 °F 50.0 °F 59% 30.08 in 10.0 mi NNW 8.1 mph - N/A   Mostly Cloudy
3:12 PM 66.2 °F 50.0 °F 56% 30.08 in 10.0 mi North 8.1 mph - N/A   Mostly Cloudy
3:32 PM 64.4 °F 50.0 °F 59% 30.08 in 10.0 mi NNE 4.6 mph - N/A   Scattered Clouds
3:52 PM 64.4 °F 50.0 °F 59% 30.07 in 10.0 mi North 8.1 mph - N/A   Scattered Clouds
4:12 PM 66.2 °F 50.0 °F 56% 30.07 in 10.0 mi NW 10.4 mph - N/A   Scattered Clouds
4:32 PM 64.4 °F 50.0 °F 59% 30.07 in 10.0 mi WNW 6.9 mph - N/A   Scattered Clouds
4:52 PM 66.2 °F 50.0 °F 56% 30.06 in 10.0 mi North 5.8 mph - N/A   Scattered Clouds
5:12 PM 66.2 °F 51.8 °F 60% 30.06 in 10.0 mi NNW 5.8 mph - N/A   Scattered Clouds
5:32 PM 64.4 °F 50.0 °F 59% 30.06 in 10.0 mi North 4.6 mph - N/A   Clear
5:52 PM 66.2 °F 51.8 °F 60% 30.06 in 10.0 mi Calm Calm - N/A   Clear
6:12 PM 64.4 °F 50.0 °F 59% 30.06 in 10.0 mi NNW 4.6 mph - N/A   Clear
6:32 PM 64.4 °F 50.0 °F 59% 30.06 in 10.0 mi WNW 5.8 mph - N/A   Clear
6:52 PM 64.4 °F 50.0 °F 59% 30.06 in 10.0 mi WNW 3.5 mph - N/A   Clear
7:12 PM 62.6 °F 50.0 °F 63% 30.06 in 10.0 mi WNW 3.5 mph - N/A   Clear
7:32 PM 60.8 °F 50.0 °F 68% 30.05 in 10.0 mi Calm Calm - N/A   Clear
7:52 PM 59.0 °F 51.8 °F 77% 30.05 in 10.0 mi Calm Calm - N/A   Clear
8:12 PM 57.2 °F 51.8 °F 82% 30.05 in 10.0 mi Calm Calm - N/A   Clear
8:32 PM 55.4 °F 50.0 °F 82% 30.05 in 10.0 mi Calm Calm - N/A   Clear
8:52 PM 51.8 °F 50.0 °F 94% 30.05 in 10.0 mi Calm Calm - N/A   Clear
9:11 PM 51.8 °F 50.0 °F 94% 30.06 in 10.0 mi Calm Calm - N/A   Clear
9:32 PM 51.8 °F 50.0 °F 94% 30.06 in 10.0 mi Calm Calm - N/A   Clear
9:52 PM 51.8 °F 50.0 °F 94% 30.07 in 10.0 mi Calm Calm - N/A   Clear
10:11 PM 51.8 °F 50.0 °F 94% 30.06 in 10.0 mi Calm Calm - N/A   Clear
10:32 PM 51.8 °F 50.0 °F 94% 30.07 in 10.0 mi Calm Calm - N/A   Clear
10:52 PM 50.0 °F 50.0 °F 100% 30.07 in 10.0 mi Calm Calm - N/A   Clear
11:11 PM 50.0 °F 48.2 °F 94% 30.07 in 1.8 mi Calm Calm - N/A   Mist
11:32 PM 48.2 °F 46.4 °F 93% 30.07 in 10.0 mi Calm Calm - N/A   Clear
11:52 PM 48.2 °F 46.4 °F 93% 30.07 in 7.0 mi Calm Calm - N/A   Clear